User: anonymous   Login
Location: Muenchen
(48.1800°N, 11.5800°E)
Time: 15:32:13
(UTC+02:00)
Language:

Sich 1 Rocket - Orbit

View from above orbital plane
View from above orbital plane
View from above satellite
View from above satellite

Ground track
Ground track

The orbit data is extracted from the following two-line orbital elements,

1 23659U 95046C   16273.14514813  .00000178  00000-0  21295-4 0  9994
2 23659  82.5331 187.6567 0026027  11.3598 104.8295 14.78206254135987
Epoch (UTC): 29 September 2016 03:29:00
Eccentricity: 0.0026027
inclination: 82.5331°
perigee height: 617 km
apogee height: 653 km
right ascension of ascending node: 187.6567°
argument of perigee: 11.3598°
revolutions per day: 14.78206254
mean anomaly at epoch: 104.8295°
orbit number at epoch: 13598

The dashed part of the orbit path shows where the satellite is in the earth's shadow,  

DLR